Location: Caltech
(34.1382°N, 118.1253°W)
Time: 00:05:06
(UTC-07:00)

Iridium 14 - Visible Passes

Search period start: 28 August 2014 00:00
Search period end: 07 September 2014 00:00
Orbit: 708 x 711 km, 86.5° (Epoch: 27 August)

Date Brightness Start Highest point End Pass type
(mag) Time Alt. Az. Time Alt. Az. Time Alt. Az.
28 Aug 7.1 22:06:09 36° N 22:06:09 36° N 22:09:01 10° N visible
29 Aug 7.2 21:12:27 24° NE 21:12:27 24° NE 21:14:57 10° NNE visible
29 Aug 8.3 22:51:28 19° NW 22:51:28 19° NW 22:53:41 10° NNW visible
30 Aug 6.8 21:57:44 43° NNW 21:57:44 43° NNW 22:01:04 10° N visible
31 Aug 6.9 21:03:59 29° ENE 21:03:59 29° ENE 21:07:06 10° NNE visible
31 Aug 8.2 22:43:00 19° WNW 22:43:00 19° WNW 22:45:36 10° NNW visible
01 Sep 6.5 21:49:13 53° NNW 21:49:13 53° NNW 21:53:07 10° N visible
02 Sep 6.5 20:55:23 34° ENE 20:55:23 34° ENE 20:59:14 10° NNE visible
02 Sep 8.2 22:34:24 18° WNW 22:34:24 18° WNW 22:37:30 10° NW visible
03 Sep 7.8 20:01:31 10° E 20:01:43 10° E 20:02:35 10° ENE visible
03 Sep 6.2 21:40:31 60° WNW 21:40:31 60° WNW 21:45:09 10° N visible
04 Sep 6.3 20:46:36 38° E 20:46:52 38° E 20:51:21 10° NNE visible
04 Sep 8.3 22:25:36 17° W 22:26:15 17° W 22:29:23 10° NW visible
05 Sep 7.7 19:52:35 11° E 19:53:44 12° E 19:55:18 10° ENE visible
05 Sep 6.4 21:31:35 49° SW 21:32:25 56° W 21:37:11 10° N visible
06 Sep 6.2 20:37:30 33° SE 20:38:55 42° E 20:43:28 10° NNE visible
06 Sep 8.4 22:16:29 13° WSW 22:18:21 16° W 22:21:14 10° NW visible
